Location: ??????
(33.3472°N, 35.4764°E)
Time: 18:26:28
(UTC+00:00)

Tsikada Rocket - Pass Details

Date: 21 August 2019
Orbit: 958 x 1009 km, 82.9° (Epoch: 15 October)

Event Time Altitude Azimuth Distance (km) Brightness Sun altitude
Rises 02:02:46 0° 178° (S) 3,714 6.8 -12.9°
Reaches altitude 10° 02:05:18 10° 176° (S) 2,763 6.2 -12.5°
Maximum altitude 02:11:36 72° 94° (E) 1,044 4.4 -11.3°
Drops below altitude 10° 02:17:53 10° 11° (N) 2,745 6.8 -10.0°
Sets 02:20:24 0° 9° (N) 3,689 7.5 -9.6°
